KQ4KX Weather Reports


time (UTC)temp
C
wind
direction
speed
KPH
gust
KPH
rain 1hr
cm
rain 24hr
cm
rain mn
cm
humidity
%
barometer
mb
20260508043906 23 291 1.6 3.2 0.00 0.00 0.00 84 1014.7
20260508043550 23 278 1.6 4.8 0.00 0.00 0.00 84 1014.8
20260508043501 23 278 1.6 4.8 0.00 0.00 0.00 84 1014.8
20260508043335 23 278 1.6 4.8 0.00 0.00 0.00 84 1014.8
20260508043302 23 277 1.6 4.8 0.00 0.00 0.00 83 1014.9
20260508042805 23 277 1.6 4.8 0.00 0.00 0.00 83 1014.9
20260508042627 23 281 1.6 3.2 0.00 0.00 0.00 82 1014.8
20260508042307 23 281 1.6 3.2 0.00 0.00 0.00 82 1014.8
20260508041924 23 287 1.6 3.2 0.00 0.00 0.00 81 1014.8
20260508041735 23 287 1.6 3.2 0.00 0.00 0.00 81 1014.8
20260508040205 24 294 1.6 3.2 0.00 0.00 0.00 80 1014.8
20260508034245 24 295 1.6 3.2 0.00 0.00 0.00 79 1014.7
20260508034034 24 295 1.6 3.2 0.00 0.00 0.00 79 1014.7
20260508031435 25 309 3.2 4.8 0.00 0.00 0.00 76 1014.7
20260508030934 25 302 3.2 4.8 0.00 0.00 0.00 75 1014.6
20260508030434 25 306 3.2 4.8 0.00 0.00 0.00 75 1014.4
20260508030000 25 309 3.2 4.8 0.00 0.00 0.00 74 1014.5
20260508025905 25 309 3.2 4.8 0.00 0.00 0.00 74 1014.5
20260508024437 25 312 3.2 4.8 0.00 0.00 0.00 71 1014.5
20260508024304 25 312 3.2 4.8 0.00 0.00 0.00 71 1014.5
20260508023833 26 311 3.2 4.8 0.00 0.00 0.00 70 1014.5
20260508023734 26 311 3.2 4.8 0.00 0.00 0.00 70 1014.5
20260508022820 26 312 3.2 4.8 0.00 0.00 0.00 68 1014.5
20260508022635 26 312 3.2 4.8 0.00 0.00 0.00 68 1014.5
20260508021035 26 297 3.2 11.3 0.00 0.00 0.00 65 1014.3
20260508020505 26 295 3.2 6.4 0.00 0.00 0.00 64 1014.3
20260508015625 26 298 3.2 4.8 0.00 0.00 0.00 63 1014.2
20260508015505 26 298 3.2 4.8 0.00 0.00 0.00 63 1014.2
20260508014935 27 298 1.6 4.8 0.00 0.00 0.00 62 1014.1
20260508014435 27 294 3.2 4.8 0.00 0.00 0.00 61 1014.2
20260508013404 27 298 3.2 6.4 0.00 0.00 0.00 60 1014.1
20260508012834 27 295 3.2 6.4 0.00 0.00 0.00 58 1014.1
20260508012335 27 294 3.2 6.4 0.00 0.00 0.00 57 1014.1
20260508011804 27 295 3.2 9.7 0.00 0.00 0.00 56 1014.0
20260508011234 27 296 3.2 9.7 0.00 0.00 0.00 54 1014.0
20260508010704 27 294 3.2 4.8 0.00 0.00 0.00 52 1013.9
20260508010205 28 293 3.2 4.8 0.00 0.00 0.00 51 1013.8
20260508005704 28 297 1.6 4.8 0.00 0.00 0.00 50 1013.8
20260508004634 28 290 3.2 4.8 0.00 0.00 0.00 47 1013.9
20260508004149 28 293 3.2 9.7 0.00 0.00 0.00 46 1013.9
20260508004104 28 293 3.2 9.7 0.00 0.00 0.00 46 1013.9
20260508003605 28 296 3.2 9.7 0.00 0.00 0.00 45 1013.9
20260508003105 28 296 3.2 6.4 0.00 0.00 0.00 44 1013.9
20260508002605 28 292 3.2 6.4 0.00 0.00 0.00 44 1013.9
20260508002104 28 289 3.2 6.4 0.00 0.00 0.00 42 1013.9
20260508001034 29 295 3.2 6.4 0.00 0.00 0.00 41 1013.8
20260508000035 30 297 3.2 6.4 0.00 0.00 0.00 41 1013.6
20260507235505 30 291 3.2 8.0 0.00 0.00 0.00 40 1013.6
20260507234934 30 290 3.2 6.4 0.00 0.00 0.00 40 1013.6
20260507234404 30 297 3.2 9.7 0.00 0.00 0.00 39 1013.6
20260507233905 30 299 3.2 11.3 0.00 0.00 0.00 38 1013.5
20260507233404 31 304 3.2 11.3 0.00 0.00 0.00 38 1013.6
20260507232904 31 307 3.2 6.4 0.00 0.00 0.00 38 1013.6
20260507231305 31 289 4.8 12.9 0.00 0.00 0.00 36 1013.4
20260507230805 31 285 4.8 14.5 0.00 0.00 0.00 35 1013.4
20260507230235 32 284 4.8 12.9 0.00 0.00 0.00 34 1013.4
20260507225735 32 284 4.8 9.7 0.00 0.00 0.00 36 1013.4
20260507225204 32 285 4.8 12.9 0.00 0.00 0.00 38 1013.4
20260507224635 32 272 6.4 14.5 0.00 0.00 0.00 39 1013.4
20260507224134 32 275 6.4 14.5 0.00 0.00 0.00 40 1013.3
20260507223634 32 286 6.4 14.5 0.00 0.00 0.00 41 1013.2
20260507223104 32 283 6.4 14.5 0.00 0.00 0.00 41 1013.2
20260507222534 32 286 3.2 14.5 0.00 0.00 0.00 42 1013.1
20260507221504 32 265 4.8 12.9 0.00 0.00 0.00 43 1013.0
20260507220935 32 270 3.2 9.7 0.00 0.00 0.00 42 1013.0
20260507220434 32 270 3.2 11.3 0.00 0.00 0.00 42 1013.1
20260507215934 32 280 4.8 12.9 0.00 0.00 0.00 41 1013.1
20260507215435 32 294 3.2 12.9 0.00 0.00 0.00 41 1013.1
20260507214904 32 308 3.2 12.9 0.00 0.00 0.00 40 1013.1
20260507214404 32 291 6.4 12.9 0.00 0.00 0.00 39 1013.1
20260507213834 33 280 6.4 12.9 0.00 0.00 0.00 38 1013.2
20260507213334 33 293 3.2 11.3 0.00 0.00 0.00 37 1013.1
20260507211804 33 322 3.2 9.7 0.00 0.00 0.00 35 1013.2
20260507211305 33 316 3.2 9.7 0.00 0.00 0.00 34 1013.2
20260507210735 33 323 3.2 8.0 0.00 0.00 0.00 34 1013.2
20260507210204 33 314 4.8 6.4 0.00 0.00 0.00 33 1013.3
20260507205704 33 313 3.2 6.4 0.00 0.00 0.00 32 1013.3
20260507205204 33 321 4.8 9.7 0.00 0.00 0.00 31 1013.3
20260507204634 33 322 4.8 11.3 0.00 0.00 0.00 30 1013.4
20260507204134 33 305 4.8 11.3 0.00 0.00 0.00 30 1013.5
20260507203134 34 330 4.8 9.7 0.00 0.00 0.00 32 1013.4
20260507202604 34 326 4.8 9.7 0.00 0.00 0.00 32 1013.4
20260507202104 34 301 4.8 14.5 0.00 0.00 0.00 33 1013.5
20260507201104 35 287 4.8 12.9 0.00 0.00 0.00 37 1013.5
20260507200534 34 293 4.8 14.5 0.00 0.00 0.00 39 1013.6
20260507195435 35 285 4.8 14.5 0.00 0.00 0.00 39 1013.7
20260507194904 35 283 4.8 14.5 0.00 0.00 0.00 38 1013.8
20260507194334 35 285 4.8 12.9 0.00 0.00 0.00 36 1013.8
20260507193834 34 274 3.2 9.7 0.00 0.00 0.00 40 1013.8
20260507193512 33 247 4.8 12.9 0.00 0.00 0.00 44 1013.9
20260507193304 33 247 4.8 12.9 0.00 0.00 0.00 44 1013.9
20260507192804 33 265 4.8 14.5 0.00 0.00 0.00 42 1013.9
20260507192234 34 273 4.8 14.5 0.00 0.00 0.00 44 1013.8
20260507191204 34 250 4.8 14.5 0.00 0.00 0.00 44 1014.1
20260507190134 33 282 4.8 12.9 0.00 0.00 0.00 47 1014.3
20260507185634 33 250 6.4 22.5 0.00 0.00 0.00 46 1014.5
20260507185134 33 232 8.0 22.5 0.00 0.00 0.00 48 1014.5
20260507184604 33 219 6.4 17.7 0.00 0.00 0.00 48 1014.6
20260507184034 33 232 4.8 16.1 0.00 0.00 0.00 50 1014.7
20260507183534 33 244 6.4 20.9 0.00 0.00 0.00 50 1014.8
20260507182434 33 205 4.8 17.7 0.00 0.00 0.00 51 1014.9
20260507181904 32 232 4.8 17.7 0.00 0.00 0.00 52 1015.0
20260507181334 33 248 4.8 17.7 0.00 0.00 0.00 52 1015.2
20260507180234 32 226 6.4 22.5 0.00 0.00 0.00 53 1015.3
20260507175734 32 235 6.4 16.1 0.00 0.00 0.00 52 1015.3
20260507175205 32 244 8.0 16.1 0.00 0.00 0.00 53 1015.5
20260507174204 32 238 8.0 20.9 0.00 0.00 0.00 55 1015.5
20260507173704 32 244 6.4 19.3 0.00 0.00 0.00 55 1015.5
20260507173135 32 258 8.0 19.3 0.00 0.00 0.00 57 1015.7
20260507172635 32 239 6.4 19.3 0.00 0.00 0.00 56 1015.7
20260507172134 32 226 6.4 19.3 0.00 0.00 0.00 59 1015.7
20260507171604 32 232 6.4 19.3 0.00 0.00 0.00 59 1015.5
20260507171034 32 232 6.4 19.3 0.00 0.00 0.00 60 1015.7
20260507170504 31 231 6.4 20.9 0.00 0.00 0.00 59 1015.7
20260507165934 32 235 6.4 17.7 0.00 0.00 0.00 58 1015.8
20260507165434 32 241 6.4 17.7 0.00 0.00 0.00 58 1015.9
20260507164904 31 242 8.0 17.7 0.00 0.00 0.00 60 1015.9
20260507164404 31 229 8.0 22.5 0.00 0.00 0.00 60 1015.9
20260507163834 31 217 8.0 20.9 0.00 0.00 0.00 60 1016.0
20260507162307 31 232 6.4 19.3 0.00 0.00 0.00 59 1016.1
20260507160734 31 235 6.4 17.7 0.00 0.00 0.00 60 1016.3
20260507160206 31 235 6.4 17.7 0.00 0.00 0.00 61 1016.5
20260507155704 30 232 6.4 17.7 0.00 0.00 0.00 61 1016.4
20260507155134 30 207 8.0 19.3 0.00 0.00 0.00 60 1016.5
20260507154604 30 218 6.4 19.3 0.00 0.00 0.00 61 1016.5
20260507153604 30 245 8.0 17.7 0.00 0.00 0.00 62 1016.7
20260507153034 30 245 6.4 16.1 0.00 0.00 0.00 60 1016.7
20260507151934 30 224 6.4 14.5 0.00 0.00 0.00 60 1016.7
20260507151434 30 212 4.8 16.1 0.00 0.00 0.00 60 1016.7
20260507150934 30 240 6.4 16.1 0.00 0.00 0.00 60 1016.6
20260507144834 28 249 9.7 30.6 0.00 0.00 0.00 63 1016.7
20260507142704 28 235 8.0 20.9 0.00 0.00 0.00 65 1016.6
20260507142134 27 235 8.0 20.9 0.00 0.00 0.00 67 1016.6
20260507141634 27 234 8.0 17.7 0.00 0.00 0.00 68 1016.6
20260507140104 27 216 6.4 20.9 0.00 0.00 0.00 67 1016.7
20260507135604 27 227 4.8 12.9 0.00 0.00 0.00 68 1016.7
20260507135034 26 217 4.8 9.7 0.00 0.00 0.00 73 1016.8
20260507134109 26 205 4.8 14.5 0.00 0.00 0.00 75 1016.8
20260507133934 26 205 4.8 14.5 0.00 0.00 0.00 75 1016.8
20260507133434 26 212 4.8 14.5 0.00 0.00 0.00 74 1016.8
20260507131905 25 194 4.8 11.3 0.00 0.00 0.00 75 1016.6
20260507131334 25 193 4.8 11.3 0.00 0.00 0.00 76 1016.5
20260507130834 25 203 4.8 11.3 0.00 0.00 0.00 78 1016.5
20260507125204 24 194 3.2 9.7 0.00 0.00 0.00 80 1016.3
20260507124637 23 181 4.8 11.3 0.00 0.00 0.00 81 1016.4
20260507124134 23 181 4.8 11.3 0.00 0.00 0.00 82 1016.4
20260507120934 22 182 3.2 9.7 0.00 0.00 0.00 87 1016.3
20260507120434 22 190 3.2 8.0 0.00 0.00 0.00 88 1016.4
20260507114906 22 188 3.2 9.7 0.00 0.00 0.00 88 1016.1
20260507114334 22 184 3.2 8.0 0.00 0.00 0.00 88 1016.2
20260507113834 22 182 1.6 8.0 0.00 0.00 0.00 88 1016.1
20260507112204 22 182 3.2 8.0 0.00 0.00 0.00 88 1016.1
20260507111705 22 186 1.6 6.4 0.00 0.00 0.00 88 1016.0
20260507111134 22 189 1.6 6.4 0.00 0.00 0.00 88 1015.8
20260507110634 22 187 1.6 6.4 0.00 0.00 0.00 87 1015.9
20260507110134 22 181 1.6 9.7 0.00 0.00 0.00 87 1015.7
20260507105635 22 181 3.2 9.7 0.00 0.00 0.00 87 1016.0
20260507105104 22 181 3.2 9.7 0.00 0.00 0.00 88 1015.9
20260507104034 21 180 1.6 8.0 0.00 0.00 0.00 90 1015.7
20260507103534 21 178 1.6 4.8 0.00 0.00 0.00 91 1015.8
20260507103034 21 169 0.0 4.8 0.00 0.00 0.00 91 1015.6
20260507101934 20 215 0.0 1.6 0.00 0.00 0.00 91 1015.7
20260507101404 21 215 0.0 1.6 0.00 0.00 0.00 90 1015.5
20260507100456 21 210 0.0 3.2 0.00 0.00 0.00 91 1015.4
20260507100335 21 213 0.0 3.2 0.00 0.00 0.00 90 1015.5
20260507095806 21 210 0.0 3.2 0.00 0.00 0.00 91 1015.4
20260507094704 21 191 0.0 1.6 0.00 0.00 0.00 90 1015.2
20260507094204 21 221 0.0 1.6 0.00 0.00 0.00 91 1015.1
20260507093834 21 246 0.0 1.6 0.00 0.00 0.00 93 1015.0
20260507093704 21 227 0.0 1.6 0.00 0.00 0.00 92 1015.0
20260507093207 21 246 0.0 1.6 0.00 0.00 0.00 93 1015.0
20260507092634 20 246 0.0 1.6 0.00 0.00 0.00 93 1014.9
20260507092104 21 246 0.0 1.6 0.00 0.00 0.00 93 1015.0
20260507090743 21 0 0.0 0.0 0.00 0.00 0.00 92 1015.2
20260507090534 21 0 0.0 0.0 0.00 0.00 0.00 92 1015.2
20260507084404 21 0 0.0 0.0 0.00 0.00 0.00 90 1015.2
20260507083404 22 246 0.0 1.6 0.00 0.00 0.00 90 1015.1
20260507082834 22 246 0.0 1.6 0.00 0.00 0.00 89 1014.9
20260507082306 22 246 0.0 1.6 0.00 0.00 0.00 89 1015.0
20260507081234 22 250 1.6 4.8 0.00 0.00 0.00 88 1014.8
20260507080734 22 248 1.6 6.4 0.00 0.00 0.00 88 1014.9
20260507075704 22 242 1.6 6.4 0.00 0.00 0.00 88 1014.9
20260507075204 22 238 1.6 4.8 0.00 0.00 0.00 88 1014.8
20260507074634 22 221 1.6 3.2 0.00 0.00 0.00 87 1014.8
20260507074134 22 227 1.6 3.2 0.00 0.00 0.00 87 1014.9
20260507073634 22 243 1.6 3.2 0.00 0.00 0.00 86 1015.0
20260507073134 22 243 0.0 3.2 0.00 0.00 0.00 86 1015.2
20260507072634 22 244 1.6 4.8 0.00 0.00 0.00 86 1015.1
20260507072134 22 242 3.2 6.4 0.00 0.00 0.00 86 1015.2
20260507071634 23 240 3.2 6.4 0.00 0.00 0.00 85 1015.2
20260507070634 23 239 3.2 6.4 0.00 0.00 0.00 85 1015.1
20260507065034 23 237 1.6 4.8 0.00 0.00 0.00 84 1015.2
20260507064534 23 231 1.6 3.2 0.00 0.00 0.00 84 1015.2
20260507063504 23 222 1.6 4.8 0.00 0.00 0.00 83 1015.3
20260507062434 23 242 3.2 4.8 0.00 0.00 0.00 82 1015.5
20260507061935 23 237 3.2 6.4 0.00 0.00 0.00 82 1015.4
20260507061404 23 229 1.6 6.4 0.00 0.00 0.00 81 1015.5
20260507060834 23 234 1.6 4.8 0.00 0.00 0.00 80 1015.8
20260507060334 23 241 3.2 9.7 0.00 0.00 0.00 79 1015.7
20260507055334 23 236 3.2 6.4 0.00 0.00 0.00 77 1015.6
20260507055005 23 206 1.6 4.8 0.00 0.00 0.00 76 1015.7
20260507054808 23 206 1.6 4.8 0.00 0.00 0.00 76 1015.7
20260507052734 23 196 1.6 4.8 0.00 0.00 0.00 74 1015.9
20260507052204 24 198 1.6 6.4 0.00 0.00 0.00 73 1016.0
20260507050604 24 202 1.6 4.8 0.00 0.00 0.00 75 1016.2
20260507045035 23 226 0.0 4.8 0.00 0.00 0.00 79 1016.4